TimeEST,TemperatureF,Dew PointF,Humidity,Sea Level PressureIn,VisibilityMPH,Wind Direction,Wind SpeedMPH,Gust SpeedMPH,PrecipitationIn,Events,Conditions,WindDirDegrees,DateUTC
12:54 AM,46.0,35.1,66,30.14,10.0,NE,3.5,-,N/A,,Clear,50,2012-12-12 05:54:00
1:54 AM,46.0,34.0,63,30.15,10.0,NE,5.8,-,N/A,,Clear,40,2012-12-12 06:54:00
2:54 AM,46.0,33.1,61,30.15,10.0,NE,4.6,-,N/A,,Clear,40,2012-12-12 07:54:00
3:54 AM,45.0,33.1,63,30.16,10.0,NNE,3.5,-,N/A,,Clear,20,2012-12-12 08:54:00
4:54 AM,46.0,33.1,61,30.17,10.0,NE,4.6,-,N/A,,Clear,40,2012-12-12 09:54:00
5:54 AM,45.0,34.0,65,30.17,10.0,NNE,4.6,-,N/A,,Clear,30,2012-12-12 10:54:00
6:54 AM,44.1,34.0,68,30.19,10.0,North,5.8,-,N/A,,Clear,360,2012-12-12 11:54:00
7:54 AM,45.0,34.0,65,30.19,10.0,NE,8.1,-,N/A,,Clear,40,2012-12-12 12:54:00
8:54 AM,46.9,33.1,59,30.21,10.0,ENE,8.1,-,N/A,,Clear,60,2012-12-12 13:54:00
9:54 AM,48.9,33.1,54,30.24,10.0,ENE,11.5,-,N/A,,Scattered Clouds,60,2012-12-12 14:54:00
10:04 AM,48.2,33.8,58,30.24,10.0,ENE,11.5,18.4,N/A,,Mostly Cloudy,60,2012-12-12 15:04:00
10:19 AM,48.2,33.8,58,30.23,10.0,ENE,10.4,-,N/A,,Scattered Clouds,60,2012-12-12 15:19:00
10:54 AM,50.0,33.1,52,30.24,10.0,ENE,13.8,19.6,N/A,,Clear,60,2012-12-12 15:54:00
11:54 AM,50.0,34.0,54,30.26,10.0,East,12.7,-,N/A,,Overcast,80,2012-12-12 16:54:00
12:54 PM,50.0,35.1,57,30.22,10.0,ENE,12.7,-,N/A,,Overcast,60,2012-12-12 17:54:00
1:54 PM,50.0,34.0,54,30.19,10.0,NE,12.7,-,N/A,,Mostly Cloudy,50,2012-12-12 18:54:00
2:54 PM,50.0,34.0,54,30.20,10.0,ENE,10.4,-,N/A,,Scattered Clouds,60,2012-12-12 19:54:00
3:54 PM,50.0,35.1,57,30.21,10.0,ENE,8.1,-,N/A,,Overcast,60,2012-12-12 20:54:00
4:08 PM,50.0,35.6,58,30.21,10.0,ENE,9.2,-,N/A,,Overcast,60,2012-12-12 21:08:00
4:54 PM,50.0,35.1,57,30.22,10.0,ENE,5.8,-,N/A,,Overcast,60,2012-12-12 21:54:00
5:03 PM,50.0,35.6,58,30.24,10.0,NE,8.1,-,N/A,,Overcast,40,2012-12-12 22:03:00
5:54 PM,50.0,34.0,54,30.23,10.0,ENE,11.5,18.4,N/A,,Overcast,60,2012-12-12 22:54:00
6:54 PM,50.0,34.0,54,30.23,10.0,ENE,8.1,-,N/A,,Overcast,60,2012-12-12 23:54:00
7:54 PM,50.0,34.0,54,30.27,10.0,ENE,6.9,-,N/A,,Overcast,60,2012-12-13 00:54:00
8:54 PM,48.9,33.1,54,30.23,10.0,ENE,17.3,25.3,N/A,,Overcast,60,2012-12-13 01:54:00
9:42 PM,48.2,33.8,58,30.28,10.0,ENE,9.2,-,0.00,,Overcast,70,2012-12-13 02:42:00
9:54 PM,48.9,34.0,56,30.29,10.0,ENE,8.1,-,0.00,,Overcast,70,2012-12-13 02:54:00
10:25 PM,46.4,35.6,66,30.28,10.0,ENE,9.2,-,0.00,Rain,Light Rain,70,2012-12-13 03:25:00
10:54 PM,48.0,34.0,58,30.27,10.0,ENE,12.7,19.6,0.00,,Overcast,60,2012-12-13 03:54:00
11:47 PM,46.4,33.8,62,30.26,10.0,East,9.2,-,N/A,,Overcast,80,2012-12-13 04:47:00
11:54 PM,46.9,33.1,59,30.26,10.0,East,9.2,-,N/A,,Overcast,80,2012-12-13 04:54:00